ABL382 VMMC-RKPK

Flight info

Callsign ABL382
Flight time N/A
Altitude 33100
Route IDUMA DCT SULAS V17 NUVGA DCT KAGED/K0852S1070 DCT SUSMU DCT RULMU DCT LAMEN/N0458F350 DCT ENSUM DCT CJU DCT AKPON Y571 ANROD KEVOX3
Aircraft A321/M-SDE2E3FGHIJ3J7M3P2RWXYZ/LB1D1

Departure

Time 2026-04-26 14:25
Airport Macau International Airport (VMMC)

Arrival

Time N/A
Airport Gimhae International Airport (RKPK)
Time Latitude Longitude Altitude Speed Heading
2026-04-26 13:48 22.15876 113.57608 35 ft 0 kts 282°
2026-04-26 14:09 22.15874 113.57614 35 ft 2 kts 282°
2026-04-26 14:09 22.15871 113.57632 35 ft 3 kts 282°
2026-04-26 14:09 22.23070 113.69190 46 ft 253 kts 282°
2026-04-26 14:10 22.15834 113.57598 35 ft 1 kts 281°
2026-04-26 14:10 22.15834 113.57600 35 ft 1 kts 281°
2026-04-26 14:11 22.15831 113.57617 35 ft 3 kts 281°
2026-04-26 14:11 22.15828 113.57636 35 ft 3 kts 281°
2026-04-26 14:11 22.15824 113.57656 35 ft 3 kts 281°
2026-04-26 14:12 22.15824 113.57658 35 ft 0 kts 281°
2026-04-26 14:12 22.15843 113.57698 35 ft 0 kts 192°
2026-04-26 14:13 22.15853 113.57695 35 ft 0 kts 191°
2026-04-26 14:13 22.15851 113.57695 35 ft 1 kts 191°
2026-04-26 14:14 22.15838 113.57692 35 ft 3 kts 191°
2026-04-26 14:14 22.15814 113.57686 35 ft 4 kts 193°
2026-04-26 14:14 22.15779 113.57677 35 ft 6 kts 198°
2026-04-26 14:14 22.15740 113.57659 35 ft 7 kts 208°
2026-04-26 14:15 22.15699 113.57632 35 ft 7 kts 214°
2026-04-26 14:15 22.15665 113.57609 35 ft 5 kts 196°
2026-04-26 14:15 22.15630 113.57627 35 ft 6 kts 128°
2026-04-26 14:15 22.15601 113.57667 35 ft 7 kts 126°
2026-04-26 14:16 22.15571 113.57714 35 ft 8 kts 123°
2026-04-26 14:16 22.15540 113.57764 35 ft 8 kts 124°
2026-04-26 14:16 22.15507 113.57816 35 ft 9 kts 124°
2026-04-26 14:16 22.15473 113.57869 35 ft 9 kts 125°
2026-04-26 14:17 22.15438 113.57924 35 ft 9 kts 123°
2026-04-26 14:17 22.15387 113.58006 35 ft 22 kts 123°
2026-04-26 14:17 22.15263 113.58202 35 ft 38 kts 123°
2026-04-26 14:17 22.15122 113.58424 35 ft 34 kts 123°
2026-04-26 14:18 22.15011 113.58601 35 ft 9 kts 123°
2026-04-26 14:18 22.14972 113.58664 35 ft 10 kts 123°
2026-04-26 14:18 22.14888 113.58797 35 ft 30 kts 126°
2026-04-26 14:18 22.14777 113.58971 35 ft 15 kts 126°
2026-04-26 14:19 22.14702 113.59026 35 ft 13 kts 154°
2026-04-26 14:19 22.14623 113.59061 35 ft 12 kts 161°
2026-04-26 14:19 22.14546 113.59089 35 ft 11 kts 161°
2026-04-26 14:19 22.14473 113.59116 35 ft 11 kts 161°
2026-04-26 14:20 22.14402 113.59141 35 ft 11 kts 161°
2026-04-26 14:20 22.14334 113.59167 35 ft 10 kts 161°
2026-04-26 14:20 22.14267 113.59191 35 ft 10 kts 161°
2026-04-26 14:20 22.14201 113.59216 35 ft 10 kts 161°
2026-04-26 14:21 22.14136 113.59242 35 ft 10 kts 159°
2026-04-26 14:21 22.14072 113.59265 35 ft 10 kts 161°
2026-04-26 14:21 22.14008 113.59288 35 ft 10 kts 161°
2026-04-26 14:21 22.13945 113.59312 35 ft 10 kts 159°
2026-04-26 14:22 22.13882 113.59335 35 ft 10 kts 163°
2026-04-26 14:22 22.13819 113.59357 35 ft 10 kts 160°
2026-04-26 14:22 22.13758 113.59382 35 ft 10 kts 159°
2026-04-26 14:22 22.13695 113.59407 35 ft 10 kts 160°
2026-04-26 14:23 22.13652 113.59424 35 ft 6 kts 160°
2026-04-26 14:23 22.13625 113.59457 35 ft 7 kts 96°
2026-04-26 14:23 22.13638 113.59508 35 ft 7 kts 70°
2026-04-26 14:23 22.13657 113.59563 35 ft 8 kts 69°
2026-04-26 14:24 22.13691 113.59597 35 ft 6 kts 357°
2026-04-26 14:24 22.13846 113.59543 35 ft 55 kts 341°
2026-04-26 14:24 22.14463 113.59314 35 ft 131 kts 341°
2026-04-26 14:24 22.15543 113.58916 95 ft 188 kts 341°
2026-04-26 14:25 22.16808 113.58660 961 ft 191 kts
2026-04-26 14:25 22.18083 113.58995 2068 ft 185 kts 18°
2026-04-26 14:25 22.19258 113.59395 2728 ft 179 kts 20°
2026-04-26 14:25 22.20479 113.59797 3120 ft 186 kts 20°
2026-04-26 14:26 22.21732 113.60237 3607 ft 195 kts 21°
2026-04-26 14:26 22.23075 113.60722 4044 ft 210 kts 20°
2026-04-26 14:26 22.24486 113.61241 4683 ft 219 kts 23°
2026-04-26 14:26 22.25873 113.62031 5245 ft 234 kts 32°
2026-04-26 14:27 22.27191 113.63172 5575 ft 258 kts 47°
2026-04-26 14:27 22.28424 113.64673 6250 ft 270 kts 43°
2026-04-26 14:27 22.29856 113.65986 7033 ft 278 kts 39°
2026-04-26 14:27 22.31369 113.67324 7859 ft 284 kts 39°
2026-04-26 14:28 22.32913 113.68702 8692 ft 290 kts 39°
2026-04-26 14:28 22.34499 113.70126 9532 ft 295 kts 40°
2026-04-26 14:28 22.36066 113.71541 10329 ft 301 kts 40°
2026-04-26 14:28 22.37766 113.73082 10548 ft 330 kts 40°
2026-04-26 14:29 22.39581 113.74732 10655 ft 360 kts 40°
2026-04-26 14:29 22.41589 113.76561 10917 ft 384 kts 40°
2026-04-26 14:29 22.43640 113.78430 11512 ft 397 kts 40°
2026-04-26 14:29 22.45779 113.80380 12266 ft 405 kts 40°
2026-04-26 14:30 22.47948 113.82360 13052 ft 412 kts 40°
2026-04-26 14:30 22.50154 113.84378 13817 ft 418 kts 40°
2026-04-26 14:30 22.52387 113.86422 14478 ft 425 kts 40°
2026-04-26 14:30 22.54663 113.88503 14711 ft 429 kts 40°
2026-04-26 14:31 22.56943 113.90589 14772 ft 430 kts 40°
2026-04-26 14:31 22.59230 113.92675 14786 ft 429 kts 40°
2026-04-26 14:31 22.61526 113.94757 15225 ft 433 kts 39°
2026-04-26 14:31 22.63851 113.96862 15984 ft 436 kts 39°
2026-04-26 14:32 22.66190 113.98982 16681 ft 440 kts 39°
2026-04-26 14:32 22.68554 114.01126 17337 ft 445 kts 39°
2026-04-26 14:32 22.70938 114.03289 17961 ft 449 kts 39°
2026-04-26 14:32 22.73347 114.05474 18554 ft 453 kts 39°
2026-04-26 14:33 22.75778 114.07679 19115 ft 458 kts 39°
2026-04-26 14:33 22.78230 114.09903 19657 ft 462 kts 39°
2026-04-26 14:33 22.80703 114.12147 20175 ft 466 kts 39°
2026-04-26 14:33 22.83197 114.14412 20671 ft 470 kts 39°
2026-04-26 14:34 22.85716 114.16700 21152 ft 474 kts 39°
2026-04-26 14:34 22.88251 114.19004 21607 ft 477 kts 39°
2026-04-26 14:34 22.90806 114.21328 22048 ft 481 kts 39°
2026-04-26 14:34 22.93367 114.23683 22469 ft 484 kts 39°
2026-04-26 14:35 22.95930 114.26075 22878 ft 488 kts 40°
2026-04-26 14:35 22.98505 114.28487 23261 ft 491 kts 40°
2026-04-26 14:35 23.01101 114.30919 23635 ft 494 kts 40°
2026-04-26 14:35 23.03713 114.33366 23987 ft 497 kts 39°
2026-04-26 14:36 23.06330 114.35820 24332 ft 500 kts 39°
2026-04-26 14:36 23.08938 114.38264 24668 ft 502 kts 39°
2026-04-26 14:36 23.11591 114.40752 24981 ft 505 kts 39°
2026-04-26 14:36 23.14255 114.43250 25289 ft 507 kts 39°
2026-04-26 14:37 23.16937 114.45752 25600 ft 509 kts 39°
2026-04-26 14:37 23.19679 114.48191 25924 ft 510 kts 37°
2026-04-26 14:37 23.22449 114.50601 26273 ft 510 kts 37°
2026-04-26 14:37 23.25229 114.53008 26631 ft 510 kts 37°
2026-04-26 14:38 23.28007 114.55414 26979 ft 510 kts 37°
2026-04-26 14:38 23.30767 114.57805 27318 ft 509 kts 37°
2026-04-26 14:38 23.33552 114.60219 27655 ft 509 kts 37°
2026-04-26 14:38 23.35385 114.61809 27873 ft 509 kts 37°
2026-04-26 14:39 23.39028 114.65085 28323 ft 508 kts 39°
2026-04-26 14:39 23.41709 114.67579 28647 ft 507 kts 39°
2026-04-26 14:39 23.44394 114.70089 28963 ft 507 kts 39°
2026-04-26 14:39 23.47068 114.72591 29275 ft 507 kts 39°
2026-04-26 14:40 23.49737 114.75088 29584 ft 506 kts 39°
2026-04-26 14:40 23.52409 114.77588 29886 ft 506 kts 39°
2026-04-26 14:40 23.54174 114.79240 30085 ft 505 kts 39°
2026-04-26 14:40 23.57733 114.82572 30483 ft 504 kts 39°
2026-04-26 14:41 23.60403 114.85075 30781 ft 504 kts 38°
2026-04-26 14:41 23.62157 114.86721 30975 ft 503 kts 38°
2026-04-26 14:41 23.65705 114.90047 31363 ft 502 kts 38°
2026-04-26 14:41 23.67458 114.91691 31553 ft 502 kts 38°
2026-04-26 14:42 23.70106 114.94174 31837 ft 501 kts 38°
2026-04-26 14:42 23.72738 114.96644 32118 ft 500 kts 38°
2026-04-26 14:42 23.75368 114.99111 32396 ft 499 kts 37°
2026-04-26 14:42 23.78011 115.01591 32670 ft 498 kts 37°
2026-04-26 14:43 23.80567 115.04002 32948 ft 497 kts 39°
2026-04-26 14:43 23.82586 115.07140 32993 ft 508 kts 70°
2026-04-26 14:43 23.83662 115.10830 33105 ft 507 kts 65°
2026-04-26 14:43 23.85465 115.14083 33091 ft 497 kts 46°
2026-04-26 14:44 23.88016 115.16567 33096 ft 489 kts 32°
2026-04-26 14:44 23.93694 115.20629 33090 ft 488 kts 29°
2026-04-26 14:45 23.99319 115.24799 33088 ft 489 kts 31°
2026-04-26 14:45 24.04825 115.29147 33088 ft 488 kts 33°
2026-04-26 14:46 24.10241 115.33636 33088 ft 489 kts 34°
2026-04-26 14:46 24.15592 115.38235 33088 ft 489 kts 35°
2026-04-26 14:47 24.20888 115.42907 33088 ft 489 kts 36°
2026-04-26 14:47 24.26129 115.47586 33087 ft 490 kts 37°
2026-04-26 14:48 24.31144 115.52753 33088 ft 492 kts 41°
2026-04-26 14:48 24.36010 115.57957 33088 ft 492 kts 41°
2026-04-26 14:49 24.40913 115.63203 33088 ft 492 kts 41°
2026-04-26 14:49 24.46273 115.68938 33088 ft 492 kts 41°
2026-04-26 14:50 24.75318 116.00128 33086 ft 491 kts 41°
2026-04-26 14:50 25.14139 116.42149 33066 ft 488 kts 40°
2026-04-26 14:51 25.37745 116.67905 33090 ft 488 kts 40°
2026-04-26 14:51 25.56694 116.88677 35219 ft 420 kts 43°
2026-04-26 14:51 25.68307 116.88554 30333 ft 478 kts 21°
2026-04-26 14:52 25.75344 116.98854 35428 ft 405 kts 59°
2026-04-26 14:52 25.80958 117.11571 32774 ft 506 kts 60°
2026-04-26 14:52 25.88711 117.24365 33142 ft 500 kts 38°
2026-04-26 14:52 25.98708 117.35109 33790 ft 499 kts 40°
2026-04-26 14:53 26.08467 117.45980 34781 ft 493 kts 39°
2026-04-26 14:53 26.14800 117.53026 34861 ft 499 kts 39°
2026-04-26 14:54 26.19692 117.58498 34670 ft 492 kts 39°